Hourly Data Report for September 03, 2017

All times are specified in Local Standard Time (LST). Add 1 hour to adjust for Daylight Saving Time where and when it is observed.

KUGLUKTUK A
NUNAVUT

67°49'00.000" N
115°08'38.000" W
22.60 m
2300903
71938
YCO

Download Data

Hourly Data (September 2017)
Hourly Data Report for September 3, 2017
Temp Definition
°C
Dew Point Temp Definition
°C
Rel Hum Definition
%
Wind Dir Definition
10's deg

Wind Spd Definition
km/h
Visibility Definition
km
Stn Press Definition
kPa
Hmdx Definition


Wind Chill Definition


Weather Definition


TIME
00:00 Legend Double Dagger 7.7 7.0 95 31 3 19.3 100.53     LegendNANA
01:00 Legend Double Dagger 6.6 6.2 97 21 7 19.3 100.55     Rain
02:00 Legend Double Dagger 7.5 6.5 94 36 3 19.3 100.58     Cloudy
03:00 Legend Double Dagger 7.4 6.5 94 31 3 24.1 100.59     LegendNANA
04:00 Legend Double Dagger 7.4 6.8 96 36 2 24.1 100.60     LegendNANA
05:00 Legend Double Dagger 7.3 6.5 95 5 5 24.1 100.62     Mostly Cloudy
06:00 Legend Double Dagger 7.1 6.2 94 1 9 24.1 100.65     LegendNANA
07:00 Legend Double Dagger 7.3 6.0 92 35 13 24.1 100.70     LegendNANA
08:00 Legend Double Dagger 7.4 6.0 91 33 16 16.1 100.74     Rain
09:00 Legend Double Dagger 7.5 6.2 92 33 13 16.1 100.77     Rain
10:00 Legend Double Dagger 7.6 6.6 93 31 13 16.1 100.82     Rain
11:00 Legend Double Dagger 7.7 6.5 92 33 14 16.1 100.87     Cloudy
12:00 Legend Double Dagger 7.7 6.6 93 34 19 19.3 100.94     Rain
13:00 Legend Double Dagger 7.4 6.3 93 35 22 19.3 101.02     Rain
14:00 Legend Double Dagger 7.1 6.3 94 34 27 16.1 101.10     Rain
15:00 Legend Double Dagger 6.8 5.9 94 34 31 16.1 101.19     Rain
16:00 Legend Double Dagger 6.9 5.6 92 34 29 12.9 101.26     Rain
17:00 Legend Double Dagger 7.0 5.6 91 34 25 12.9 101.33     Rain
18:00 Legend Double Dagger 7.0 5.4 89 33 23 19.3 101.40     Rain
19:00 Legend Double Dagger 6.7 5.8 94 32 16 12.9 101.47     Rain
20:00 Legend Double Dagger 6.8 5.5 92 33 20 12.9 101.52     Rain
21:00 Legend Double Dagger 6.6 5.5 93 33 18 16.1 101.59     Rain
22:00 Legend Double Dagger 5.8 5.1 95 28 10 16.1 101.63     Rain
23:00 Legend Double Dagger 5.5 4.9 96 26 13 19.3 101.68     Mostly Cloudy

Notes on Data Quality.

Legend

  • E = Estimated
  • M = Missing
  • NA = Not Available
  • ‡ = Partner data that is not subject to review by the National Climate Archives
Date modified: